W4SNA-3 Weather Reports


time (UTC)temp
C
wind
direction
speed
KPH
gust
KPH
rain 1hr
cm
rain 24hr
cm
rain mn
cm
humidity
%
barometer
mb
20260906102422 19 0 0.0 3.2 0.00 0.08 0.00 95 1013.5
20260906101717 19 0 0.0 3.2 0.00 0.08 0.00 95 1013.6
20260906101216 19 0 0.0 4.8 0.00 0.08 0.00 95 1013.5
20260906100718 19 39 1.6 4.8 0.00 0.08 0.00 95 1013.5
20260906100218 18 39 1.6 3.2 0.00 0.08 0.00 95 1013.5
20260906095716 18 40 1.6 4.8 0.00 0.08 0.00 95 1013.4
20260906095225 19 0 0.0 4.8 0.00 0.08 0.00 95 1013.2
20260906094716 18 40 1.6 4.8 0.00 0.08 0.00 95 1013.0
20260906094216 19 40 1.6 8.0 0.00 0.08 0.00 95 1012.9
20260906093719 19 48 1.6 8.0 0.00 0.08 0.00 95 1012.9
20260906093218 19 356 1.6 6.4 0.00 0.08 0.00 94 1012.8
20260906092717 19 355 1.6 6.4 0.00 0.08 0.00 94 1012.8
20260906092218 19 355 1.6 6.4 0.00 0.08 0.00 94 1012.8
20260906091716 19 337 1.6 4.8 0.00 0.08 0.00 94 1012.9
20260906091218 19 337 1.6 4.8 0.00 0.08 0.00 94 1013.0
20260906090727 19 8 1.6 4.8 0.00 0.08 0.00 94 1013.1
20260906090216 19 9 1.6 6.4 0.00 0.08 0.00 94 1012.9
20260906085722 18 18 3.2 6.4 0.00 0.08 0.00 94 1012.8
20260906085217 18 351 3.2 6.4 0.00 0.08 0.00 94 1012.6
20260906084717 18 341 3.2 6.4 0.00 0.08 0.00 94 1012.5
20260906084130 18 342 3.2 6.4 0.00 0.08 0.00 94 1012.6
20260906083629 18 344 3.2 6.4 0.00 0.08 0.00 94 1012.7
20260906083128 18 344 3.2 4.8 0.00 0.08 0.00 94 1012.8
20260906082630 18 345 3.2 4.8 0.00 0.08 0.00 94 1013.0
20260906082147 18 345 1.6 4.8 0.00 0.08 0.00 94 1013.1
20260906081629 18 346 3.2 4.8 0.00 0.08 0.00 94 1012.9
20260906081129 18 346 1.6 4.8 0.00 0.08 0.00 94 1013.0
20260906080641 18 346 1.6 4.8 0.00 0.08 0.00 94 1013.0
20260906080131 18 346 1.6 4.8 0.00 0.08 0.00 94 1013.1
20260906075601 18 346 1.6 3.2 0.00 0.08 0.00 94 1013.2
20260906074847 18 346 1.6 3.2 0.00 0.08 0.00 94 1013.1
20260906074347 18 0 0.0 3.2 0.00 0.08 0.00 94 1013.1
20260906073847 18 0 0.0 0.0 0.00 0.08 0.00 93 1013.1
20260906073347 18 0 0.0 0.0 0.00 0.08 0.00 93 1012.9
20260906072847 18 0 0.0 0.0 0.00 0.08 0.00 93 1013.0
20260906072347 18 0 0.0 0.0 0.00 0.08 0.00 93 1013.1
20260906071847 18 0 0.0 0.0 0.00 0.08 0.00 93 1013.1
20260906071347 18 0 0.0 0.0 0.00 0.08 0.00 93 1013.1
20260906070857 18 0 0.0 0.0 0.00 0.08 0.00 92 1013.9
20260906070402 18 0 0.0 0.0 0.00 0.08 0.00 93 1013.9
20260906065847 19 0 0.0 0.0 0.00 0.08 0.00 92 1014.0
20260906065347 19 0 0.0 3.2 0.00 0.08 0.00 92 1014.0
20260906064847 19 0 0.0 4.8 0.00 0.08 0.00 92 1014.0
20260906064347 19 346 1.6 4.8 0.00 0.08 0.00 92 1014.0
20260906063858 19 346 1.6 4.8 0.00 0.08 0.00 92 1014.0
20260906063347 19 346 3.2 6.4 0.00 0.08 0.00 92 1014.1
20260906062847 19 346 3.2 6.4 0.00 0.08 0.00 92 1014.1
20260906062347 19 346 3.2 6.4 0.00 0.08 0.00 92 1014.1
20260906061847 19 346 1.6 4.8 0.00 0.08 0.00 92 1014.2
20260906061118 19 348 3.2 6.4 0.00 0.08 0.00 92 1014.1
20260906060615 19 349 3.2 6.4 0.00 0.08 0.00 92 1014.1
20260906060115 19 353 3.2 6.4 0.00 0.08 0.00 92 1014.2
20260906055615 19 355 3.2 6.4 0.00 0.08 0.00 92 1014.2
20260906055124 19 355 3.2 6.4 0.00 0.08 0.00 92 1014.2
20260906054615 19 355 3.2 4.8 0.00 0.08 0.00 92 1014.2
20260906054115 19 351 1.6 4.8 0.00 0.08 0.00 92 1014.3
20260906053636 20 350 1.6 4.8 0.00 0.08 0.00 92 1014.3
20260906034429 20 343 1.6 4.8 0.00 0.08 0.08 91 1014.6
20260906033928 20 343 1.6 6.4 0.00 0.08 0.08 91 1014.7
20260906033428 20 344 1.6 6.4 0.00 0.08 0.08 91 1014.6
20260906032928 20 345 1.6 4.8 0.00 0.08 0.08 90 1014.7
20260906032330 20 347 3.2 6.4 0.00 0.08 0.08 90 1014.7
20260906031827 20 336 3.2 6.4 0.00 0.08 0.08 90 1014.8
20260906031328 20 327 3.2 6.4 0.00 0.08 0.08 90 1014.6
20260906030827 20 334 3.2 8.0 0.00 0.08 0.08 90 1014.5
20260906030327 20 326 3.2 8.0 0.00 0.08 0.08 90 1014.6
20260906025828 20 343 3.2 8.0 0.00 0.08 0.08 91 1014.7
20260906025330 20 353 3.2 6.4 0.00 0.08 0.08 90 1014.9
20260906024547 20 3 3.2 8.0 0.00 0.08 0.08 90 1014.9
20260906024056 20 325 1.6 8.0 0.00 0.08 0.08 90 1014.8
20260906023547 20 341 3.2 6.4 0.00 0.08 0.08 90 1014.8
20260906023029 20 11 3.2 6.4 0.00 0.08 0.08 90 1014.7
20260906022530 20 338 3.2 6.4 0.00 0.08 0.08 89 1014.7
20260906022028 20 333 1.6 6.4 0.00 0.08 0.08 89 1014.7
20260906021529 20 333 3.2 6.4 0.00 0.08 0.08 89 1014.6
20260906021028 20 336 1.6 6.4 0.00 0.08 0.08 89 1014.5
20260906020529 20 343 3.2 6.4 0.00 0.08 0.08 88 1014.9
20260906020029 20 329 1.6 6.4 0.00 0.08 0.08 88 1014.8
20260906015529 20 324 1.6 8.0 0.00 0.08 0.08 88 1014.6
20260906015028 21 17 3.2 8.0 0.00 0.08 0.08 87 1014.5
20260906014529 21 27 1.6 8.0 0.00 0.08 0.08 87 1014.4
20260906014031 21 17 1.6 11.3 0.00 0.08 0.08 87 1014.3
20260906013530 21 15 3.2 11.3 0.00 0.08 0.08 87 1014.3
20260906013032 21 31 1.6 6.4 0.00 0.08 0.08 88 1014.2
20260906012532 20 328 3.2 8.0 0.00 0.08 0.08 88 1014.2
20260906012034 21 340 3.2 9.7 0.00 0.08 0.08 89 1014.1
20260906011531 21 338 3.2 9.7 0.00 0.08 0.08 89 1014.0
20260906011028 21 325 3.2 6.4 0.00 0.08 0.08 89 1014.1
20260906010529 21 325 3.2 6.4 0.00 0.08 0.08 89 1014.2
20260906010029 21 329 3.2 6.4 0.00 0.08 0.08 89 1014.2
20260906005531 21 6 3.2 6.4 0.00 0.08 0.08 89 1014.1
20260906005031 21 328 1.6 6.4 0.00 0.08 0.08 88 1013.9
20260906004505 21 329 1.6 11.3 0.00 0.08 0.08 88 1013.7
20260906004005 21 357 3.2 11.3 0.00 0.08 0.08 88 1013.5
20260906003458 21 14 3.2 8.0 0.00 0.08 0.08 88 1013.4
20260906002958 21 312 1.6 6.4 0.00 0.08 0.08 88 1013.3
20260906002501 21 317 1.6 6.4 0.00 0.08 0.08 88 1013.3
20260906001650 21 304 1.6 6.4 0.00 0.08 0.08 87 1013.3
20260906001151 21 287 1.6 6.4 0.00 0.08 0.08 87 1013.2
20260906000150 21 18 1.6 8.0 0.00 0.08 0.08 86 1013.2
20260905235649 21 331 1.6 4.8 0.00 0.08 0.08 86 1013.2
20260905234823 21 320 1.6 6.4 0.00 0.08 0.08 86 1013.2
20260905234323 21 345 1.6 4.8 0.00 0.08 0.08 86 1013.1
20260905233827 21 8 1.6 4.8 0.00 0.08 0.08 86 1013.0
20260905233323 21 340 1.6 4.8 0.00 0.08 0.08 86 1013.3
20260905232514 21 340 1.6 6.4 0.00 0.08 0.08 85 1013.0
20260905232000 21 331 1.6 6.4 0.00 0.08 0.08 85 1013.1
20260905231501 22 321 1.6 6.4 0.00 0.08 0.08 85 1013.1
20260905231005 22 321 3.2 6.4 0.00 0.08 0.08 85 1013.2
20260905230501 22 319 3.2 8.0 0.00 0.08 0.08 85 1013.3
20260905230001 22 321 3.2 8.0 0.00 0.08 0.08 84 1013.2
20260905225500 22 324 1.6 8.0 0.00 0.08 0.08 84 1013.2
20260905225001 22 336 3.2 6.4 0.00 0.08 0.08 84 1013.2
20260905224458 22 325 1.6 6.4 0.00 0.08 0.08 83 1013.3
20260905224004 22 29 1.6 6.4 0.00 0.08 0.08 83 1013.2
20260905223503 22 2 3.2 9.7 0.00 0.08 0.08 83 1013.3
20260905223000 22 334 3.2 9.7 0.00 0.08 0.08 83 1013.3
20260905222458 22 344 1.6 11.3 0.00 0.08 0.08 83 1013.3
20260905222008 22 27 1.6 11.3 0.00 0.08 0.08 83 1013.4
20260905221458 22 322 3.2 9.7 0.00 0.08 0.08 83 1013.2
20260905221018 22 299 1.6 4.8 0.00 0.08 0.08 83 1013.3
20260905220502 22 350 1.6 6.4 0.00 0.08 0.08 82 1013.5
20260905215959 22 50 1.6 6.4 0.00 0.08 0.08 82 1013.5
20260905215300 22 44 1.6 6.4 0.00 0.08 0.08 82 1013.5
20260905214806 22 51 1.6 8.0 0.00 0.08 0.08 82 1013.5
20260905214258 22 0 0.0 8.0 0.00 0.08 0.08 82 1013.5
20260905213758 22 0 0.0 8.0 0.00 0.08 0.08 81 1013.4
20260905213258 22 3 1.6 6.4 0.00 0.08 0.08 81 1013.5
20260905212758 22 14 1.6 6.4 0.00 0.08 0.08 81 1013.4
20260905212258 22 278 1.6 8.0 0.00 0.08 0.08 81 1013.4
20260905211803 23 330 1.6 8.0 0.00 0.08 0.08 81 1013.3
20260905211258 23 0 0.0 6.4 0.00 0.08 0.08 81 1013.2
20260905210758 23 65 1.6 4.8 0.00 0.08 0.08 80 1013.2
20260905210259 23 0 0.0 6.4 0.00 0.08 0.08 80 1013.2
20260905205758 23 0 0.0 6.4 0.00 0.08 0.08 80 1013.3
20260905205319 23 66 1.6 4.8 0.00 0.08 0.08 79 1013.2
20260905204758 23 0 0.0 8.0 0.00 0.08 0.08 79 1013.2
20260905204300 23 68 1.6 8.0 0.00 0.08 0.08 79 1013.2
20260905203758 23 0 0.0 8.0 0.00 0.08 0.08 78 1013.3
20260905203307 23 0 0.0 8.0 0.00 0.08 0.08 79 1013.1
20260905202803 23 115 1.6 6.4 0.00 0.08 0.08 80 1013.0
20260905202308 23 315 1.6 14.5 0.00 0.08 0.08 80 1012.9
20260905201759 23 326 3.2 14.5 0.00 0.08 0.08 80 1012.8
20260905201301 23 2 3.2 9.7 0.00 0.08 0.08 80 1012.7
20260905200758 22 314 3.2 9.7 0.00 0.08 0.08 80 1012.4
20260905200259 22 353 3.2 11.3 0.00 0.08 0.08 80 1012.2
20260905195758 22 326 4.8 11.3 0.00 0.08 0.08 79 1012.1
20260905195259 22 352 4.8 11.3 0.00 0.08 0.08 80 1011.9
20260905194331 22 314 4.8 14.5 0.00 0.08 0.08 80 1011.9
20260905193831 22 315 4.8 14.5 0.00 0.08 0.08 81 1012.0
20260905193350 22 318 4.8 11.3 0.00 0.08 0.08 81 1011.9
20260905192843 22 320 4.8 9.7 0.00 0.08 0.08 83 1011.8
20260905192331 21 314 4.8 9.7 0.00 0.08 0.08 83 1011.8
20260905191831 21 312 4.8 11.3 0.00 0.08 0.08 84 1011.9
20260905191332 21 316 4.8 11.3 0.00 0.08 0.08 84 1011.7
20260905190831 21 316 4.8 12.9 0.00 0.08 0.08 84 1011.6
20260905190331 21 324 6.4 12.9 0.00 0.08 0.08 86 1011.7
20260905185840 20 312 4.8 12.9 0.00 0.08 0.08 88 1011.7
20260905185331 20 310 6.4 12.9 0.03 0.08 0.08 90 1011.6
20260905184856 20 311 4.8 9.7 0.03 0.08 0.08 90 1011.9
20260905184055 19 316 8.0 12.9 0.05 0.08 0.08 91 1011.8
20260905183547 19 320 6.4 12.9 0.08 0.08 0.08 92 1012.0
20260905183047 19 324 6.4 20.9 0.08 0.08 0.08 93 1011.8
20260905182619 18 315 8.0 20.9 0.08 0.08 0.08 93 1011.7
20260905182047 18 319 8.0 12.9 0.08 0.08 0.08 93 1012.4
20260905181146 18 329 4.8 9.7 0.08 0.08 0.08 93 1012.4
20260905180646 18 324 3.2 9.7 0.08 0.08 0.08 93 1012.4
20260905180146 18 324 4.8 9.7 0.08 0.08 0.08 93 1013.2
20260905175646 18 311 4.8 12.9 0.08 0.08 0.08 92 1013.6
20260905175146 18 312 6.4 12.9 0.05 0.05 0.05 91 1013.9
20260905174500 19 314 6.4 12.9 0.05 0.05 0.05 89 1013.4
20260905174005 19 314 6.4 14.5 0.03 0.03 0.03 89 1014.0
20260905173500 20 310 6.4 14.5 0.00 0.00 0.00 88 1014.5
20260905173003 20 312 6.4 14.5 0.00 0.00 0.00 87 1014.7
20260905172500 20 314 6.4 14.5 0.00 0.00 0.00 85 1014.8
20260905171500 22 310 6.4 16.1 0.00 0.00 0.00 80 1015.2
20260905171002 22 307 4.8 16.1 0.00 0.00 0.00 77 1015.4
20260905165715 24 315 6.4 12.9 0.00 0.00 0.00 77 1015.8
20260905165215 25 327 6.4 12.9 0.00 0.00 0.00 74 1016.0
20260905164657 26 314 6.4 12.9 0.00 0.00 0.00 72 1016.1
20260905164154 26 328 4.8 12.9 0.00 0.00 0.00 71 1016.2
20260905163654 27 303 1.6 12.9 0.00 0.00 0.00 70 1016.4
20260905163155 28 14 1.6 11.3 0.00 0.00 0.00 72 1016.2
20260905162715 28 0 0.0 8.0 0.00 0.00 0.00 71 1015.9
20260905162154 28 0 0.0 8.0 0.00 0.00 0.00 71 1016.0
20260905161654 28 0 0.0 8.0 0.00 0.00 0.00 71 1015.9
20260905161211 28 298 1.6 9.7 0.00 0.00 0.00 70 1015.6
20260905160700 29 0 0.0 9.7 0.00 0.00 0.00 70 1015.6
20260905160201 28 291 1.6 8.0 0.00 0.00 0.00 69 1015.6
20260905155655 29 323 3.2 8.0 0.00 0.00 0.00 69 1015.7
20260905155154 29 289 1.6 8.0 0.00 0.00 0.00 68 1015.8
20260905154716 29 0 0.0 8.0 0.00 0.00 0.00 71 1015.8
20260905154154 29 323 1.6 11.3 0.00 0.00 0.00 69 1015.8
20260905153655 29 342 4.8 11.3 0.00 0.00 0.00 68 1015.7
20260905153156 29 1 3.2 8.0 0.00 0.00 0.00 69 1015.7
20260905152654 28 315 3.2 8.0 0.00 0.00 0.00 69 1015.6
20260905152154 28 338 1.6 8.0 0.00 0.00 0.00 72 1015.6
20260905151654 28 330 3.2 11.3 0.00 0.00 0.00 72 1015.5
20260905151155 28 340 3.2 11.3 0.00 0.00 0.00 73 1015.5
20260905150343 28 311 4.8 11.3 0.00 0.00 0.00 71 1015.4
20260905145900 28 317 4.8 11.3 0.00 0.00 0.00 70 1015.3
20260905145334 28 312 3.2 8.0 0.00 0.00 0.00 70 1015.3
20260905144834 28 314 4.8 9.7 0.00 0.00 0.00 69 1015.2
20260905144343 28 307 3.2 11.3 0.00 0.00 0.00 70 1015.2
20260905143834 28 320 4.8 11.3 0.00 0.00 0.00 70 1015.3
20260905143334 28 328 4.8 9.7 0.00 0.00 0.00 70 1015.2
20260905142847 28 311 6.4 11.3 0.00 0.00 0.00 70 1015.4
20260905142334 28 312 3.2 11.3 0.00 0.00 0.00 71 1015.4
20260905141834 28 318 4.8 11.3 0.00 0.00 0.00 71 1015.3
20260905141334 27 318 4.8 9.7 0.00 0.00 0.00 72 1015.3
20260905140834 27 316 4.8 16.1 0.00 0.00 0.00 72 1015.3
20260905140334 27 316 4.8 16.1 0.00 0.00 0.00 72 1015.2
20260905135834 27 321 4.8 16.1 0.00 0.00 0.00 72 1015.1
20260905135334 27 322 4.8 16.1 0.00 0.00 0.00 73 1015.1
20260905134836 27 314 4.8 14.5 0.00 0.00 0.00 74 1015.0
20260905134334 27 318 4.8 9.7 0.00 0.00 0.00 73 1015.0
20260905133836 27 318 6.4 11.3 0.00 0.00 0.00 74 1015.0
20260905133334 26 312 4.8 11.3 0.00 0.00 0.00 74 1015.0
20260905132834 26 314 4.8 11.3 0.00 0.00 0.00 74 1015.2
20260905132336 26 311 6.4 11.3 0.00 0.00 0.00 74 1015.2
20260905131839 26 317 4.8 9.7 0.00 0.00 0.00 75 1015.2
20260905131334 26 314 4.8 11.3 0.00 0.00 0.00 76 1015.2
20260905130838 26 313 4.8 11.3 0.00 0.00 0.00 76 1015.2
20260905130336 26 313 4.8 9.7 0.00 0.00 0.00 77 1015.4
20260905125835 25 315 4.8 9.7 0.00 0.00 0.00 77 1015.4
20260905125334 25 323 4.8 8.0 0.00 0.00 0.00 77 1015.4
20260905124511 25 310 3.2 8.0 0.00 0.00 0.00 78 1015.5
20260905124011 25 318 4.8 8.0 0.00 0.00 0.00 79 1015.5
20260905123511 24 309 4.8 8.0 0.00 0.00 0.00 80 1015.6
20260905122719 23 313 4.8 9.7 0.00 0.00 0.00 81 1015.7
20260905122220 23 311 4.8 9.7 0.00 0.00 0.00 81 1015.6
20260905121717 23 312 4.8 11.3 0.00 0.00 0.00 82 1015.8
20260905121219 22 310 4.8 11.3 0.00 0.00 0.00 83 1015.7
20260905120718 22 312 4.8 9.7 0.00 0.00 0.00 83 1015.7
20260905120218 22 314 4.8 9.7 0.00 0.00 0.00 84 1015.5
20260905115720 22 310 4.8 9.7 0.00 0.00 0.00 85 1015.4
20260905115231 22 317 4.8 9.7 0.00 0.00 0.00 85 1015.3
20260905114725 22 321 4.8 9.7 0.00 0.00 0.00 85 1015.4
20260905114221 22 317 4.8 9.7 0.00 0.00 0.00 85 1015.3
20260905113719 22 315 4.8 9.7 0.00 0.00 0.00 85 1015.2
20260905113220 21 315 4.8 9.7 0.00 0.00 0.00 85 1015.1
20260905112720 21 314 4.8 11.3 0.00 0.00 0.00 84 1015.2
20260905112218 21 311 4.8 11.3 0.00 0.00 0.00 84 1015.1
20260905111717 21 318 4.8 9.7 0.00 0.00 0.00 84 1015.2
20260905111217 21 316 4.8 9.7 0.00 0.00 0.00 84 1015.1
20260905110720 21 312 4.8 9.7 0.00 0.00 0.00 84 1015.1
20260905110217 21 313 4.8 9.7 0.00 0.00 0.00 84 1015.1
20260905105717 21 310 4.8 9.7 0.00 0.00 0.00 84 1015.2
20260905105228 22 312 4.8 9.7 0.00 0.00 0.00 84 1015.0
20260905104717 22 318 4.8 9.7 0.00 0.00 0.00 83 1015.0
20260905104219 22 315 4.8 9.7 0.00 0.00 0.00 83 1015.1
20260905103717 22 315 4.8 9.7 0.00 0.00 0.00 83 1015.0
20260905103220 22 317 4.8 8.0 0.00 0.00 0.00 83 1015.1